This demonstration page uses our WeatherBlox Daily Observations layout. Learn more.

41.55636, -103.73856

Hourly Observations for December 21, 2016

Temp ( °F °C ) Dew Point ( °F °C ) Humidity (%) Winds ( mph kmh ) Pressure ( in mb ) Visibility ( mi km ) Precip ( " mm )
12:53 am 00:53 Clear 50 10 23 -5 35 35 W 23 37 29.9 1012 10 16.0934 0 0
1:53 am 01:53 Clear 48 8.9 23 -5 37 37 W 17 28 29.94 1014 10 16.0934 0 0
2:53 am 02:53 Mostly Clear 47 8.3 23 -5 39 39 WNW 16 26 29.96 1014 10 16.0934 0 0
3:53 am 03:53 Clear 41 5 25 -3.9 53 53 NNW 7 11 29.98 1015 10 16.0934 0 0
4:53 am 04:53 Clear 38 3.3 25 -3.9 60 60 W 8 13 30.08 1019 10 16.0934 0 0
5:53 am 05:53 Cloudy 39 3.9 22 -5.6 50 50 NNW 10 17 30.13 1020 10 16.0934 0 0
6:53 am 06:53 Cloudy 37 2.8 20 -6.7 50 50 WNW 10 17 30.19 1022 10 16.0934 0 0
7:53 am 07:53 Cloudy 36 2.2 16 -8.9 44 44 WNW 9 15 30.23 1024 10 16.0934 0 0
8:53 am 08:53 Cloudy 35 1.7 15 -9.4 44 44 NW 10 17 30.28 1026 10 16.0934 0 0
9:53 am 09:53 Cloudy 35 1.7 15 -9.4 44 44 NW 12 19 30.3 1026 10 16.0934 0 0
10:53 am 10:53 Cloudy 36 2.2 15 -9.4 42 42 NNW 18 30 30.32 1027 10 16.0934 0 0
11:53 am 11:53 Cloudy 37 2.8 15 -9.4 41 41 NNW 20 31 30.29 1026 10 16.0934 0 0
12:53 pm 12:53 Sunny 39 3.9 15 -9.4 38 38 NNW 22 35 30.27 1025 10 16.0934 0 0
1:53 pm 13:53 Sunny 40 4.4 15 -9.4 36 36 NW 17 28 30.29 1026 10 16.0934 0 0
2:53 pm 14:53 Sunny 39 3.9 16 -8.9 39 39 NNW 16 26 30.32 1027 10 16.0934 0 0
3:53 pm 15:53 Sunny 35 1.7 16 -8.9 46 46 NNW 9 15 30.35 1028 10 16.0934 0 0
4:53 pm 16:53 Clear 30 -1.1 16 -8.9 56 56 NNW 3 6 30.39 1029 10 16.0934 0 0
5:53 pm 17:53 Clear 26 -3.3 17 -8.3 69 69 Calm 30.42 1030 10 16.0934 0 0
6:53 pm 18:53 Clear 26 -3.3 17 -8.3 69 69 S 3 6 30.44 1031 10 16.0934 0 0
7:53 pm 19:53 Clear 27 -2.8 17 -8.3 66 66 S 6 9 30.45 1031 10 16.0934 0 0
8:53 pm 20:53 Clear 22 -5.6 15 -9.4 75 75 NNE 7 11 30.47 1032 10 16.0934 0 0
9:53 pm 21:53 Clear 21 -6.1 15 -9.4 78 78 NE 9 15 30.46 1032 10 16.0934 0 0
10:53 pm 22:53 Clear 16 -8.9 11 -11.7 80 80 Calm 30.48 1032 10 16.0934 0 0
11:53 pm 23:53 Clear 15 -9.4 9 -12.8 77 77 N 3 6 30.48 1032 10 16.0934 0 0

Powered by AerisWeather